Location: Cranford
(40.6578°N, 74.3024°W)
Time: 09:09:12
(UTC+00:00)

N. Korean satellite - Visible Passes

Search period start: 04 December 2022 00:00
Search period end: 14 December 2022 00:00
Orbit: 421 x 453 km, 97.3° (Epoch: 03 December)

Date Brightness Start Highest point End Pass type
(mag) Time Alt. Az. Time Alt. Az. Time Alt. Az.
04 Dec 8.4 09:44:35 10° NE 09:47:36 28° E 09:50:33 10° SSE visible
04 Dec 8.1 11:17:52 10° NNW 11:19:50 15° WNW 11:21:46 10° WSW visible
05 Dec 6.6 10:37:55 10° N 10:41:12 45° WNW 10:44:25 10° SSW visible
06 Dec 7.4 09:59:01 10° NNE 10:02:18 46° E 10:05:32 10° S visible
06 Dec 8.7 22:00:20 10° SSW 22:03:21 30° W 22:06:25 10° NNW visible
07 Dec 9.6 09:21:19 10° ENE 09:23:09 14° E 09:24:58 10° SE visible
07 Dec 7.2 10:52:45 10° N 10:55:43 28° WNW 10:58:38 10° SW visible
08 Dec 6.4 10:13:27 10° NNE 10:16:50 77° E 10:20:10 10° S visible
08 Dec 9.5 22:15:21 10° SW 22:17:55 20° W 22:20:29 10° NW visible
09 Dec 9.0 09:35:04 10° NE 09:37:42 21° E 09:40:18 10° SSE visible
09 Dec 7.8 11:07:36 10° NNW 11:10:04 19° WNW 11:12:30 10° WSW visible
10 Dec 6.2 10:27:51 10° N 10:31:12 64° WNW 10:34:29 10° SSW visible
10 Dec 9.8 22:30:40 10° WSW 22:32:21 13° W 22:34:03 10° WNW visible
11 Dec 8.2 09:49:01 10° NNE 09:52:05 32° E 09:55:05 10° SSE visible
11 Dec 8.2 11:22:39 10° NW 11:24:15 13° WNW 11:25:50 10° W visible
12 Dec 6.7 10:42:13 10° N 10:45:23 39° WNW 10:48:30 10° SW visible
13 Dec 7.1 10:03:00 10° NNE 10:06:17 51° E 10:09:30 10° S visible
13 Dec 8.9 22:04:18 10° SSW 22:07:14 27° W 22:10:13 10° NW visible
